TimeEST,TemperatureF,Dew PointF,Humidity,Sea Level PressureIn,VisibilityMPH,Wind Direction,Wind SpeedMPH,Gust SpeedMPH,PrecipitationIn,Events,Conditions,WindDirDegrees,DateUTC
12:54 AM,45.0,28.0,52,30.01,10.0,WSW,9.2,-,N/A,,Clear,240,2013-01-01 05:54:00
1:54 AM,44.1,28.0,53,30.02,10.0,WSW,6.9,-,N/A,,Clear,250,2013-01-01 06:54:00
2:54 AM,45.0,28.9,53,30.01,10.0,WSW,8.1,-,N/A,,Clear,240,2013-01-01 07:54:00
3:54 AM,45.0,28.9,53,29.98,10.0,WSW,5.8,-,N/A,,Clear,240,2013-01-01 08:54:00
4:54 AM,45.0,28.9,53,29.98,10.0,West,5.8,-,N/A,,Mostly Cloudy,270,2013-01-01 09:54:00
5:54 AM,45.0,28.0,52,29.99,10.0,WSW,3.5,-,N/A,,Overcast,250,2013-01-01 10:54:00
7:54 AM,44.1,33.1,65,30.01,10.0,SW,4.6,-,0.00,,Mostly Cloudy,220,2013-01-01 12:54:00
8:54 AM,43.0,35.1,74,29.99,10.0,South,5.8,-,0.00,Rain,Light Rain,190,2013-01-01 13:54:00
9:54 AM,45.0,35.1,68,30.02,10.0,Calm,Calm,-,0.00,,Partly Cloudy,0,2013-01-01 14:54:00
10:54 AM,46.0,35.1,66,29.99,10.0,WSW,3.5,-,N/A,,Mostly Cloudy,250,2013-01-01 15:54:00
11:54 AM,46.9,35.1,63,29.97,10.0,West,3.5,-,N/A,,Mostly Cloudy,260,2013-01-01 16:54:00
12:54 PM,46.9,33.1,59,29.95,10.0,West,5.8,-,N/A,,Overcast,270,2013-01-01 17:54:00
2:54 PM,46.9,32.0,56,29.91,10.0,SW,4.6,-,N/A,,Partly Cloudy,230,2013-01-01 19:54:00
3:54 PM,46.9,30.0,52,29.94,10.0,WNW,4.6,-,N/A,,Scattered Clouds,300,2013-01-01 20:54:00
4:54 PM,45.0,28.0,52,29.95,10.0,WNW,4.6,-,N/A,,Clear,300,2013-01-01 21:54:00
6:54 PM,44.1,28.9,55,29.99,10.0,Calm,Calm,-,N/A,,Clear,0,2013-01-01 23:54:00
7:54 PM,42.1,30.0,62,29.99,10.0,NNW,3.5,-,N/A,,Partly Cloudy,330,2013-01-02 00:54:00
8:54 PM,43.0,28.9,58,29.97,10.0,North,5.8,-,N/A,,Mostly Cloudy,350,2013-01-02 01:54:00
9:54 PM,43.0,28.9,58,30.00,10.0,WNW,4.6,-,N/A,,Overcast,300,2013-01-02 02:54:00
10:54 PM,43.0,28.9,58,30.01,10.0,NW,4.6,-,N/A,,Overcast,310,2013-01-02 03:54:00
11:54 PM,43.0,28.9,58,30.01,10.0,Calm,Calm,-,N/A,,Overcast,0,2013-01-02 04:54:00